Retour au catalogue

TITAN 34D TRANSTAGE R/B

ActifGEO
NORAD 14931·ROCKET BODY·🇺🇸 United States

Lancé Apr 14, 1984 depuis Cape Canaveral Space Force Station

Loading…

TLE

FraisSource: Space-Track

Époque: Sep 13, 2026, 21:32 UTC

1 14931U 84037B   26256.89726806  .00000054  00000-0  00000-0 0  9996
2 14931   8.6173 310.4301 0032277 327.7346  32.0186  1.01158153 26834

Suivez TITAN 34D TRANSTAGE R/B en temps réel avec AllMySat

Download on the App Store